COSMOS 1375 DEB, 17798

Orbit data source: Space-Track

COSMOS 1375 DEB, 17798 is space debris in LEO originally from a launch on Sun, 06 Jun 1982 UTC launched from the Plesetsk Missile And Space Complex (PKMTR). Debris objects in space refer to the collection of defunct objects orbiting the Earth. Examples of debris include non-operational satellites, rocket bodies, and fragments generated from explosions, collisions, or faulty payload assembly.

Loading next visibility...
Identifier
17798, 1982-055AQ
Orbit
LEO
Country
Flag of CISCIS
Related business
Manufacturer
Unknown
Mission
Spacecraft
Bus & Motor
Unknown
Mass
Unknown
Launch date (UTC)
1982-06-06 (44 years ago)
Launch vehicle
Unknown
Launch site
Plesetsk Missile And Space Complex (PKMTR)
Object type
Payload
Rocket body
Debris
Shape & HBR
Unknown shape, 0.2 m
Radar Cross Section
Medium (>0.1 m² and <1 m²)

Expand to show TLE details & history
Last TLE update: 3 days ago

TLE from 3 days ago
0 COSMOS 1375 DEB
1 17798U 82055AQ  26170.78007047 -.00000067  00000-0  13816-4 0  9998
2 17798  65.8371 300.9820 0076403 190.6110 318.3471 13.59309775 17288
Epoch: 2026-06-19T18:43Z
TLE epoch observation values (Epoch: 2026-06-19T18:43:18.088Z)
Latitude
28.64539°
Longitude
-81.95816°
Altitude
998.665 km
Speed
7.376 km/s
True Right ascension
07h 07m 29s
True Declination
28° 30' 20"
Sunlit
Object was in daylight at epoch
Visualization orbit readout
Latitude
Unknown
Longitude
Unknown
Altitude
Unknown
Speed
Unknown
Apparent Right ascension
Unknown
Apparent Declination
Unknown
Sunlit
N/A
Visualization observer readout
Local Sidereal Time
06:45:01
Azimuth
Unknown
Elevation
Unknown
Doppler factor
Unknown
Orbital elements
Apogee altitude
1,093.381 km
Perigee altitude
980.078 km
Semi-major axis
7,414.866 km
Eccentricity
0.00764
Inclination
65.8371°
RAAN
300.982°
Arg. of periapsis
190.611°
True anomaly
317.76105°
Mean anomaly
318.3471°
Eccentric anomaly
318.05449°
Mean motion
3.39929 °/min
Orbital period
105.9 mins
BSTAR
0.000013816
Loading maneuver chart data...
Computing Atmospheric mass density...
Loading historical data...
Loading historical data...
Loading historical data...
Loading historical data...
Loading historical data...
Loading historical data...
Loading historical data...

Documentation

Showing up to 5 results
|